Location: San Antonio
(29.4240°N, 98.4930°W)
Time: 03:47:00
(UTC-05:00)

A-11 Canister half - All Passes

Search period start: 15 July 2024 00:00
Search period end: 25 July 2024 00:00
Orbit: 1524 x 1684 km, 47.3° (Epoch: 14 July)

Date Brightness Start Highest point End Pass type
(mag) Time Alt. Az. Time Alt. Az. Time Alt. Az.
15 Jul - 06:07:43 10° SSW 06:17:27 55° SE 06:26:57 10° ENE visible
15 Jul - 08:13:01 10° WSW 08:22:41 51° NNW 08:32:03 10° NE daylight
15 Jul - 10:21:56 10° WNW 10:29:52 27° N 10:37:38 10° NE daylight
15 Jul - 12:29:21 10° NW 12:37:45 33° NNE 12:45:56 10° E daylight
15 Jul - 14:34:25 10° NW 14:43:54 82° NE 14:53:12 10° SE daylight
15 Jul - 16:40:54 10° WNW 16:48:06 26° SW 16:55:19 10° S daylight
16 Jul - 05:46:02 10° SSW 05:55:42 52° SE 06:05:08 10° ENE visible
16 Jul - 07:51:07 10° WSW 08:00:50 53° NNW 08:10:18 10° NE daylight
16 Jul - 09:59:57 10° WNW 10:07:59 27° N 10:15:48 10° NE daylight
16 Jul - 12:07:32 10° NW 12:15:53 32° NNE 12:24:01 10° ENE daylight
16 Jul - 14:12:38 10° NW 14:22:08 78° NE 14:31:25 10° SE daylight
16 Jul - 16:18:56 10° WNW 16:26:24 28° SW 16:33:52 10° S daylight
17 Jul - 05:24:22 10° SSW 05:33:57 49° SE 05:43:17 10° ENE visible
17 Jul - 07:29:12 10° WSW 07:39:00 56° NNW 07:48:33 10° NE daylight
17 Jul - 09:37:57 10° WNW 09:46:04 28° N 09:53:58 10° NE daylight
17 Jul - 11:45:42 10° NW 11:54:00 31° NNE 12:02:05 10° ENE daylight
17 Jul - 13:50:52 10° NW 14:00:22 75° NE 14:09:39 10° ESE daylight
17 Jul - 15:56:59 10° WNW 16:04:43 30° SW 16:12:23 10° S daylight
18 Jul - 05:02:42 10° SSW 05:12:11 46° SE 05:21:28 10° ENE visible
18 Jul - 07:07:17 10° WSW 07:17:10 58° NW 07:26:48 10° NE daylight
18 Jul - 09:15:57 10° WNW 09:24:09 28° N 09:32:08 10° NE daylight
18 Jul - 11:23:51 10° NW 11:32:07 31° NNE 11:40:09 10° ENE daylight
18 Jul - 13:29:05 10° NW 13:38:36 71° NE 13:47:51 10° ESE daylight
18 Jul - 15:35:04 10° WNW 15:43:01 32° SW 15:50:54 10° S daylight
19 Jul - 04:41:05 10° SSW 04:50:26 43° SE 04:59:36 10° ENE visible
19 Jul - 06:45:24 10° WSW 06:55:21 61° NW 07:05:03 10° NE daylight
19 Jul - 08:53:57 10° WNW 09:02:15 29° NNW 09:10:19 10° NE daylight
19 Jul - 11:02:00 10° NW 11:10:14 30° NNE 11:18:14 10° ENE daylight
19 Jul - 13:07:18 10° NW 13:16:49 68° NE 13:26:04 10° ESE daylight
19 Jul - 15:13:09 10° WNW 15:21:18 35° SW 15:29:22 10° S daylight
20 Jul - 04:19:27 10° SSW 04:28:41 41° SE 04:37:43 10° ENE visible
20 Jul - 06:23:31 10° WSW 06:33:31 64° NW 06:43:18 10° NE visible
20 Jul - 08:31:57 10° WNW 08:40:20 30° NNW 08:48:30 10° NE daylight
20 Jul - 10:40:09 10° NW 10:48:20 29° NNE 10:56:18 10° ENE daylight
20 Jul - 12:45:32 10° NW 12:55:01 65° NE 13:04:15 10° ESE daylight
20 Jul - 14:51:15 10° WNW 14:59:36 37° SW 15:07:50 10° SSE daylight
21 Jul - 03:57:51 10° SSW 04:06:56 38° SE 04:15:51 10° ENE visible
21 Jul - 06:01:39 10° WSW 06:11:42 67° NW 06:21:32 10° NE visible
21 Jul - 08:09:57 10° WNW 08:18:25 30° NNW 08:26:42 10° NE daylight
21 Jul - 10:18:16 10° NW 10:26:27 29° NNE 10:34:22 10° ENE daylight
21 Jul - 12:23:45 10° NW 12:33:14 62° NE 12:42:26 10° ESE daylight
21 Jul - 14:29:22 10° WNW 14:37:53 40° SW 14:46:17 10° SSE daylight
22 Jul - 03:36:16 10° S 03:45:11 36° SE 03:53:57 10° ENE visible
22 Jul - 05:39:46 10° WSW 05:49:53 70° NW 05:59:46 10° NE visible
22 Jul - 07:47:57 10° WNW 07:56:31 31° NNW 08:04:53 10° NE daylight
22 Jul - 09:56:24 10° NW 10:04:32 28° N 10:12:27 10° ENE daylight
22 Jul - 12:01:57 10° NW 12:11:26 59° NE 12:20:37 10° ESE daylight
22 Jul - 14:07:29 10° WNW 14:16:11 42° SW 14:24:43 10° SSE daylight
23 Jul - 03:14:42 10° S 03:23:26 34° SE 03:32:02 10° ENE visible
23 Jul - 05:17:55 10° WSW 05:28:04 73° NW 05:38:00 10° NE visible
23 Jul - 07:25:57 10° WNW 07:34:37 32° NNW 07:43:05 10° NE daylight
23 Jul - 09:34:31 10° NW 09:42:37 28° N 09:50:31 10° ENE daylight
23 Jul - 11:40:10 10° NW 11:49:38 56° NNE 11:58:46 10° ESE daylight
23 Jul - 13:45:38 10° WNW 13:54:28 45° SW 14:03:08 10° SSE daylight
24 Jul - 02:53:10 10° S 03:01:40 31° SE 03:10:07 10° ENE visible
24 Jul - 04:56:05 10° SW 05:06:15 77° NW 05:16:13 10° NE visible
24 Jul - 07:03:57 10° W 07:12:43 33° NNW 07:21:17 10° NE daylight
24 Jul - 09:12:37 10° NW 09:20:43 28° N 09:28:36 10° ENE daylight
24 Jul - 11:18:23 10° NW 11:27:49 54° NNE 11:36:56 10° ESE daylight
24 Jul - 13:23:46 10° WNW 13:32:45 48° SW 13:41:32 10° SSE daylight
